Regional Weather Roundup
Issued by NWS

Home | Current Version | Previous Version | Graphics & Text | Print | Product List | Glossary On
Versions: 1 2 3 4 5 6 7 8 9 10 11 12 13 14 15 16 17 18 19 20 21 22 23 24 25 26 27 28 29 30 31 32 33 34 35 36 37 38 39 40 41 42 43 44 45 46 47 48 49 50
000
ASUS43 KBIS 061101
RWRND

NORTH DAKOTA REGIONAL WEATHER ROUNDUP
NATIONAL WEATHER SERVICE BISMARCK ND
500 AM CST FRI MAR 06 2015

NOTE: "FAIR" INDICATES FEW OR NO CLOUDS BELOW 12,000 FEET WITH NO
SIGNIFICANT WEATHER AND/OR OBSTRUCTIONS TO VISIBILITY.


NDZ001>003-009>011-017-061200-
NORTHWEST NORTH DAKOTA

CITY           SKY/WX    TMP DP  RH WIND       PRES   REMARKS
WILLISTON      PTCLDY    16  12  84 CALM      30.06S
MINOT          CLEAR     19  12  74 W12       30.03R WCI   7
MINOT AFB      CLEAR     16  14  90 W14       30.02R WCI   2
$$

NDZ018>021-031>035-040>046-061200-
SOUTHWEST NORTH DAKOTA

CITY           SKY/WX    TMP DP  RH WIND       PRES   REMARKS
BISMARCK       CLEAR     17  12  80 W3        30.06S
DICKINSON      CLEAR     21  13  71 W7        30.02S WCI  12
GARRISON         N/A     17  12  80 NW10      30.04R WCI   5
HETTINGER ARPT CLEAR     21  12  68 CALM      30.06R
$$

NDZ004>008-012>016-024-026-027-054-061200-
NORTHEAST NORTH DAKOTA

CITY           SKY/WX    TMP DP  RH WIND       PRES   REMARKS
GRAND FORKS    CLEAR     11   6  81 NW8       29.99R WCI  -1
GRND FRKS AFB  CLEAR     15   8  73 NW8       29.99R WCI   4
DEVILS LAKE    CLEAR     12   5  73 W9        29.99R WCI   0
$$

NDZ022-023-025-028>030-036>039-047>053-061200-
SOUTHEAST NORTH DAKOTA

CITY           SKY/WX    TMP DP  RH WIND       PRES   REMARKS
FARGO          CLEAR     14   8  77 W9        29.99R WCI   2
JAMESTOWN      CLEAR     17  11  77 NW12      30.00R WCI   4
$$



USA.gov is the U.S. government's official web portal to all federal, state and local government web resources and services.